| time (UTC) | temp F | wind direction | speed MPH | gust MPH | rain 1hr in | rain 24hr in | rain mn in | humidity % | barometer mb |
| 20260504081516 | 40 | 311 | 1.0 | 3.0 | 0.00 | 0.00 | 0.00 | 87 | 1009.2 |
| 20260504044546 | 33 | 191 | 0.0 | 0.0 | 0.00 | 0.00 | 0.00 | 86 | 1009.5 |
| 20260504043042 | 33 | 162 | 0.0 | 0.0 | 0.00 | 0.00 | 0.00 | 87 | 1009.6 |
| 20260504041540 | 32 | 162 | 0.0 | 0.0 | 0.00 | 0.00 | 0.00 | 84 | 1009.6 |
| 20260504040049 | 33 | 162 | 0.0 | 0.0 | 0.00 | 0.00 | 0.00 | 83 | 1009.5 |
| 20260504034548 | 33 | 186 | 0.0 | 1.0 | 0.00 | 0.00 | 0.00 | 83 | 1009.4 |
| 20260504033037 | 32 | 203 | 0.0 | 0.0 | 0.00 | 0.00 | 0.00 | 82 | 1009.4 |
| 20260504031535 | 33 | 181 | 0.0 | 1.0 | 0.00 | 0.00 | 0.00 | 81 | 1009.5 |
| 20260504030033 | 33 | 185 | 0.0 | 1.0 | 0.00 | 0.00 | 0.00 | 81 | 1009.4 |
| 20260504024532 | 33 | 189 | 0.0 | 0.0 | 0.00 | 0.00 | 0.00 | 81 | 1009.4 |
| 20260504023031 | 33 | 189 | 0.0 | 0.0 | 0.00 | 0.00 | 0.00 | 80 | 1009.5 |
| 20260504021529 | 34 | 192 | 0.0 | 1.0 | 0.00 | 0.00 | 0.00 | 79 | 1009.6 |
| 20260504020027 | 35 | 192 | 0.0 | 1.0 | 0.00 | 0.00 | 0.00 | 78 | 1009.4 |
| 20260504014525 | 36 | 179 | 0.0 | 3.0 | 0.00 | 0.00 | 0.00 | 76 | 1009.3 |
| 20260504013030 | 36 | 191 | 0.0 | 2.0 | 0.00 | 0.00 | 0.00 | 74 | 1009.2 |
| 20260504011519 | 37 | 180 | 0.0 | 1.0 | 0.00 | 0.00 | 0.00 | 69 | 1009.1 |
| 20260504010017 | 40 | 171 | 0.0 | 1.0 | 0.00 | 0.00 | 0.00 | 65 | 1008.9 |
| 20260504004518 | 41 | 232 | 0.0 | 2.0 | 0.00 | 0.00 | 0.00 | 61 | 1008.8 |
| 20260504003016 | 42 | 236 | 0.0 | 1.0 | 0.00 | 0.00 | 0.00 | 59 | 1008.6 |
| 20260504001516 | 44 | 271 | 0.0 | 1.0 | 0.00 | 0.00 | 0.00 | 55 | 1008.5 |
| 20260504000015 | 45 | 283 | 0.0 | 3.0 | 0.00 | 0.00 | 0.00 | 51 | 1008.4 |
| 20260503234515 | 46 | 283 | 0.0 | 5.0 | 0.00 | 0.00 | 0.00 | 48 | 1008.2 |
| 20260503233014 | 47 | 321 | 2.0 | 7.0 | 0.00 | 0.00 | 0.00 | 50 | 1008.1 |
| 20260503231519 | 47 | 302 | 4.0 | 16.0 | 0.00 | 0.00 | 0.00 | 50 | 1008.0 |
| 20260503230013 | 47 | 310 | 6.0 | 11.0 | 0.00 | 0.00 | 0.00 | 51 | 1008.0 |
| 20260503224512 | 47 | 307 | 7.0 | 16.0 | 0.00 | 0.00 | 0.00 | 52 | 1008.0 |
| 20260503223013 | 47 | 299 | 8.0 | 14.0 | 0.00 | 0.00 | 0.00 | 54 | 1008.0 |
| 20260503221512 | 47 | 293 | 12.0 | 20.0 | 0.00 | 0.00 | 0.00 | 52 | 1008.0 |
| 20260503220010 | 47 | 295 | 13.0 | 20.0 | 0.00 | 0.00 | 0.00 | 53 | 1007.8 |
| 20260503214510 | 47 | 307 | 19.0 | 26.0 | 0.00 | 0.01 | 0.00 | 50 | 1007.8 |
| 20260503213010 | 47 | 304 | 15.0 | 25.0 | 0.00 | 0.01 | 0.00 | 50 | 1007.9 |
| 20260503211508 | 47 | 320 | 12.0 | 18.0 | 0.00 | 0.01 | 0.00 | 50 | 1007.8 |
| 20260503210009 | 47 | 304 | 20.0 | 30.0 | 0.00 | 0.01 | 0.00 | 52 | 1007.8 |
| 20260503204506 | 47 | 306 | 19.0 | 34.0 | 0.00 | 0.01 | 0.00 | 48 | 1007.8 |
| 20260503203006 | 47 | 300 | 7.0 | 31.0 | 0.00 | 0.01 | 0.00 | 46 | 1007.5 |
| 20260503201505 | 47 | 304 | 17.0 | 25.0 | 0.00 | 0.01 | 0.00 | 43 | 1007.5 |
| 20260503200004 | 47 | 303 | 20.0 | 27.0 | 0.00 | 0.01 | 0.00 | 43 | 1007.3 |
| 20260503194504 | 47 | 304 | 23.0 | 29.0 | 0.00 | 0.01 | 0.00 | 45 | 1007.4 |
| 20260503193003 | 47 | 253 | 8.0 | 25.0 | 0.00 | 0.01 | 0.00 | 44 | 1007.5 |
| 20260503191502 | 47 | 311 | 18.0 | 29.0 | 0.00 | 0.01 | 0.00 | 43 | 1007.5 |
| 20260503190004 | 47 | 294 | 12.0 | 25.0 | 0.00 | 0.01 | 0.00 | 45 | 1007.5 |
| 20260503184506 | 47 | 309 | 18.0 | 30.0 | 0.00 | 0.03 | 0.00 | 49 | 1007.5 |
| 20260503183000 | 47 | 304 | 18.0 | 28.0 | 0.00 | 0.03 | 0.00 | 47 | 1007.5 |
| 20260503181600 | 47 | 294 | 13.0 | 27.0 | 0.00 | 0.03 | 0.00 | 42 | 1007.4 |
| 20260503174559 | 47 | 283 | 14.0 | 32.0 | 0.00 | 0.03 | 0.00 | 45 | 1007.3 |
| 20260503173113 | 47 | 319 | 16.0 | 27.0 | 0.00 | 0.03 | 0.00 | 48 | 1007.2 |
| 20260503171556 | 47 | 304 | 19.0 | 30.0 | 0.00 | 0.03 | 0.00 | 48 | 1007.5 |